Year,Month,Day,Hour,Minute,Value (Times are PST for windspeed in km/hr)
2007,05,07,00,00,4.30
2007,05,07,00,01,5.70
2007,05,07,00,02,3.50
2007,05,07,00,03,4.80
2007,05,07,00,04,3.90
2007,05,07,00,05,3.10
2007,05,07,00,06,4.30
2007,05,07,00,07,5.50
2007,05,07,00,08,5.60
2007,05,07,00,09,4.20
2007,05,07,00,10,3.60
2007,05,07,00,11,4.70
2007,05,07,00,12,5.60
2007,05,07,00,13,4.40
2007,05,07,00,14,3.90
2007,05,07,00,15,3.00
2007,05,07,00,16,3.10
2007,05,07,00,17,2.10
2007,05,07,00,18,4.10
2007,05,07,00,19,3.30
2007,05,07,00,20,3.30
2007,05,07,00,21,3.50
2007,05,07,00,22,3.40
2007,05,07,00,23,2.50
2007,05,07,00,24,3.40
2007,05,07,00,25,3.20
2007,05,07,00,26,3.10
2007,05,07,00,27,5.30
2007,05,07,00,28,3.90
2007,05,07,00,29,4.60
2007,05,07,00,30,5.70
2007,05,07,00,31,4.10
2007,05,07,00,32,4.20
2007,05,07,00,33,3.60
2007,05,07,00,34,4.00
2007,05,07,00,35,3.90
2007,05,07,00,36,0.90
2007,05,07,00,37,0.00
2007,05,07,00,38,0.00
2007,05,07,00,39,0.00
2007,05,07,00,40,0.00
2007,05,07,00,41,0.60
2007,05,07,00,42,4.20
2007,05,07,00,43,3.50
2007,05,07,00,44,3.60
2007,05,07,00,45,3.20
2007,05,07,00,46,2.90
2007,05,07,00,47,3.30
2007,05,07,00,48,2.20
2007,05,07,00,49,2.70
2007,05,07,00,50,1.40
2007,05,07,00,51,2.20
2007,05,07,00,52,5.10
2007,05,07,00,53,6.40
2007,05,07,00,54,5.50
2007,05,07,00,55,3.80
2007,05,07,00,56,3.30
2007,05,07,00,57,5.10
2007,05,07,00,58,5.00
2007,05,07,00,59,4.30
2007,05,07,01,00,4.60
2007,05,07,01,01,4.20
2007,05,07,01,02,4.10
2007,05,07,01,03,3.00
2007,05,07,01,04,2.40
2007,05,07,01,05,2.60
2007,05,07,01,06,3.90
2007,05,07,01,07,4.80
2007,05,07,01,08,4.70
2007,05,07,01,09,1.80
2007,05,07,01,10,2.80
2007,05,07,01,11,0.90
2007,05,07,01,12,3.30
2007,05,07,01,13,2.30
2007,05,07,01,14,1.50
2007,05,07,01,15,2.20
2007,05,07,01,16,2.10
2007,05,07,01,17,1.30
2007,05,07,01,18,1.80
2007,05,07,01,19,3.00
2007,05,07,01,20,1.90
2007,05,07,01,21,3.30
2007,05,07,01,22,1.60
2007,05,07,01,23,2.80
2007,05,07,01,24,0.40
2007,05,07,01,25,0.10
2007,05,07,01,26,1.30
2007,05,07,01,27,0.70
2007,05,07,01,28,0.00
2007,05,07,01,29,0.00
2007,05,07,01,30,0.00
2007,05,07,01,31,1.00
2007,05,07,01,32,2.50
2007,05,07,01,33,2.20
2007,05,07,01,34,3.90
2007,05,07,01,35,2.90
2007,05,07,01,36,2.70
2007,05,07,01,37,1.40
2007,05,07,01,38,0.20
2007,05,07,01,39,1.50
2007,05,07,01,40,0.40
2007,05,07,01,41,0.00
2007,05,07,01,42,0.80
2007,05,07,01,43,2.60
2007,05,07,01,44,4.50
2007,05,07,01,45,1.80
2007,05,07,01,46,2.30
2007,05,07,01,47,0.70
2007,05,07,01,48,1.50
2007,05,07,01,49,2.30
2007,05,07,01,50,1.50
2007,05,07,01,51,1.60
2007,05,07,01,52,1.80
2007,05,07,01,53,0.70
2007,05,07,01,54,1.50
2007,05,07,01,55,4.20
2007,05,07,01,56,4.80
2007,05,07,01,57,5.30
2007,05,07,01,58,4.60
2007,05,07,01,59,4.00
2007,05,07,02,00,4.90
2007,05,07,02,01,3.20
2007,05,07,02,02,3.90
2007,05,07,02,03,4.90
2007,05,07,02,04,4.80
2007,05,07,02,05,5.70
2007,05,07,02,06,7.40
2007,05,07,02,07,6.80
2007,05,07,02,08,6.60
2007,05,07,02,09,6.20
2007,05,07,02,10,3.90
2007,05,07,02,11,5.30
2007,05,07,02,12,6.00
2007,05,07,02,13,5.60
2007,05,07,02,14,6.20
2007,05,07,02,15,8.80
2007,05,07,02,16,6.00
2007,05,07,02,17,4.80
2007,05,07,02,18,4.80
2007,05,07,02,19,4.80
2007,05,07,02,20,4.60
2007,05,07,02,21,4.90
2007,05,07,02,22,5.00
2007,05,07,02,23,5.40
2007,05,07,02,24,5.40
2007,05,07,02,25,5.60
2007,05,07,02,26,5.60
2007,05,07,02,27,3.90
2007,05,07,02,28,4.20
2007,05,07,02,29,4.80
2007,05,07,02,30,3.60
2007,05,07,02,31,5.70
2007,05,07,02,32,3.40
2007,05,07,02,33,3.10
2007,05,07,02,34,2.80
2007,05,07,02,35,2.30
2007,05,07,02,36,0.20
2007,05,07,02,37,1.30
2007,05,07,02,38,0.80
2007,05,07,02,39,1.30
2007,05,07,02,40,0.00
2007,05,07,02,41,1.50
2007,05,07,02,42,0.40
2007,05,07,02,43,2.10
2007,05,07,02,44,1.20
2007,05,07,02,45,0.10
2007,05,07,02,46,0.90
2007,05,07,02,47,2.50
2007,05,07,02,48,4.00
2007,05,07,02,49,3.40
2007,05,07,02,50,1.40
2007,05,07,02,51,0.20
2007,05,07,02,52,0.20
2007,05,07,02,53,2.80
2007,05,07,02,54,2.60
2007,05,07,02,55,2.40
2007,05,07,02,56,3.20
2007,05,07,02,57,3.20
2007,05,07,02,58,1.60
2007,05,07,02,59,0.20
2007,05,07,03,00,0.20
2007,05,07,03,01,0.00
2007,05,07,03,02,0.60
2007,05,07,03,03,0.20
2007,05,07,03,04,0.80
2007,05,07,03,05,0.20
2007,05,07,03,06,0.40
2007,05,07,03,07,1.40
2007,05,07,03,08,3.00
2007,05,07,03,09,1.80
2007,05,07,03,10,2.30
2007,05,07,03,11,1.20
2007,05,07,03,12,0.40
2007,05,07,03,13,1.90
2007,05,07,03,14,0.50
2007,05,07,03,15,0.10
2007,05,07,03,16,0.00
2007,05,07,03,17,0.20
2007,05,07,03,18,0.20
2007,05,07,03,19,0.20
2007,05,07,03,20,1.40
2007,05,07,03,21,2.40
2007,05,07,03,22,2.00
2007,05,07,03,23,1.30
2007,05,07,03,24,1.60
2007,05,07,03,25,2.60
2007,05,07,03,26,3.80
2007,05,07,03,27,3.90
2007,05,07,03,28,2.00
2007,05,07,03,29,2.90
2007,05,07,03,30,4.50
2007,05,07,03,31,4.80
2007,05,07,03,32,4.60
2007,05,07,03,33,5.30
2007,05,07,03,34,4.50
2007,05,07,03,35,5.50
2007,05,07,03,36,4.90
2007,05,07,03,37,5.20
2007,05,07,03,38,2.80
2007,05,07,03,39,3.40
2007,05,07,03,40,0.80
2007,05,07,03,41,0.00
2007,05,07,03,42,0.50
2007,05,07,03,43,0.50
2007,05,07,03,44,0.00
2007,05,07,03,45,0.00
2007,05,07,03,46,0.00
2007,05,07,03,47,0.00
2007,05,07,03,48,0.10
2007,05,07,03,49,0.00
2007,05,07,03,50,0.00
2007,05,07,03,51,0.00
2007,05,07,03,52,0.30
2007,05,07,03,53,0.10
2007,05,07,03,54,0.00
2007,05,07,03,55,0.00
2007,05,07,03,56,0.10
2007,05,07,03,57,0.00
2007,05,07,03,58,0.00
2007,05,07,03,59,0.00
2007,05,07,04,00,0.60
2007,05,07,04,01,0.80
2007,05,07,04,02,0.10
2007,05,07,04,03,1.10
2007,05,07,04,04,0.10
2007,05,07,04,05,0.00
2007,05,07,04,06,0.00
2007,05,07,04,07,0.00
2007,05,07,04,08,0.10
2007,05,07,04,09,3.40
2007,05,07,04,10,3.10
2007,05,07,04,11,0.90
2007,05,07,04,12,1.80
2007,05,07,04,13,0.10
2007,05,07,04,14,0.00
2007,05,07,04,15,0.10
2007,05,07,04,16,0.00
2007,05,07,04,17,1.20
2007,05,07,04,18,0.30
2007,05,07,04,19,0.00
2007,05,07,04,20,0.10
2007,05,07,04,21,0.50
2007,05,07,04,22,1.80
2007,05,07,04,23,4.30
2007,05,07,04,24,3.90
2007,05,07,04,25,5.70
2007,05,07,04,26,5.40
2007,05,07,04,27,3.70
2007,05,07,04,28,4.40
2007,05,07,04,29,3.10
2007,05,07,04,30,2.70
2007,05,07,04,31,2.50
2007,05,07,04,32,2.90
2007,05,07,04,33,2.40
2007,05,07,04,34,0.40
2007,05,07,04,35,2.00
2007,05,07,04,36,0.70
2007,05,07,04,37,1.70
2007,05,07,04,38,0.10
2007,05,07,04,39,0.00
2007,05,07,04,40,0.00
2007,05,07,04,41,0.00
2007,05,07,04,42,0.10
2007,05,07,04,43,0.60
2007,05,07,04,44,0.10
2007,05,07,04,45,0.00
2007,05,07,04,46,0.00
2007,05,07,04,47,0.10
2007,05,07,04,48,0.10
2007,05,07,04,49,0.10
2007,05,07,04,50,0.70
2007,05,07,04,51,0.00
2007,05,07,04,52,0.00
2007,05,07,04,53,1.10
2007,05,07,04,54,0.20
2007,05,07,04,55,0.20
2007,05,07,04,56,1.10
2007,05,07,04,57,1.30
2007,05,07,04,58,2.80
2007,05,07,04,59,2.00
2007,05,07,05,00,2.50
2007,05,07,05,01,4.40
2007,05,07,05,02,6.40
2007,05,07,05,03,5.40
2007,05,07,05,04,4.40
2007,05,07,05,05,4.90
2007,05,07,05,06,7.50
2007,05,07,05,07,4.90
2007,05,07,05,08,6.00
2007,05,07,05,09,6.20
2007,05,07,05,10,6.80
2007,05,07,05,11,7.10
2007,05,07,05,12,6.50
2007,05,07,05,13,6.20
2007,05,07,05,14,6.20
2007,05,07,05,15,7.30
2007,05,07,05,16,6.20
2007,05,07,05,17,6.60
2007,05,07,05,18,7.20
2007,05,07,05,19,7.50
2007,05,07,05,20,7.50
2007,05,07,05,21,7.50
2007,05,07,05,22,7.00
2007,05,07,05,23,6.80
2007,05,07,05,24,7.10
2007,05,07,05,25,5.30
2007,05,07,05,26,6.00
2007,05,07,05,27,4.90
2007,05,07,05,28,5.30
2007,05,07,05,29,3.90
2007,05,07,05,30,2.80
2007,05,07,05,31,2.60
2007,05,07,05,32,1.70
2007,05,07,05,33,0.40
2007,05,07,05,34,0.10
2007,05,07,05,35,1.80
2007,05,07,05,36,0.50
2007,05,07,05,37,0.10
2007,05,07,05,38,0.10
2007,05,07,05,39,0.10
2007,05,07,05,40,2.30
2007,05,07,05,41,3.70
2007,05,07,05,42,2.50
2007,05,07,05,43,1.50
2007,05,07,05,44,1.10
2007,05,07,05,45,2.00
2007,05,07,05,46,3.40
2007,05,07,05,47,2.20
2007,05,07,05,48,2.10
2007,05,07,05,49,0.80
2007,05,07,05,50,1.20
2007,05,07,05,51,1.90
2007,05,07,05,52,0.00
2007,05,07,05,53,0.00
2007,05,07,05,54,0.10
2007,05,07,05,55,0.40
2007,05,07,05,56,0.30
2007,05,07,05,57,0.10
2007,05,07,05,58,0.00
2007,05,07,05,59,0.00
2007,05,07,06,00,0.10
2007,05,07,06,01,0.00
2007,05,07,06,02,0.00
2007,05,07,06,03,0.00
2007,05,07,06,04,0.00
2007,05,07,06,05,0.00
2007,05,07,06,06,0.00
2007,05,07,06,07,0.10
2007,05,07,06,08,1.50
2007,05,07,06,09,1.40
2007,05,07,06,10,1.70
2007,05,07,06,11,1.10
2007,05,07,06,12,1.20
2007,05,07,06,13,0.40
2007,05,07,06,14,0.10
2007,05,07,06,15,0.20
2007,05,07,06,16,1.70
2007,05,07,06,17,2.50
2007,05,07,06,18,2.40
2007,05,07,06,19,0.10
2007,05,07,06,20,0.20
2007,05,07,06,21,0.00
2007,05,07,06,22,0.00
2007,05,07,06,23,0.00
2007,05,07,06,24,0.10
2007,05,07,06,25,1.00
2007,05,07,06,26,1.10
2007,05,07,06,27,1.10
2007,05,07,06,28,1.30
2007,05,07,06,29,1.80
2007,05,07,06,30,2.90
2007,05,07,06,31,3.00
2007,05,07,06,32,3.80
2007,05,07,06,33,4.10
2007,05,07,06,34,3.90
2007,05,07,06,35,3.40
2007,05,07,06,36,2.60
2007,05,07,06,37,2.50
2007,05,07,06,38,2.20
2007,05,07,06,39,3.90
2007,05,07,06,40,3.40
2007,05,07,06,41,3.50
2007,05,07,06,42,3.60
2007,05,07,06,43,4.70
2007,05,07,06,44,4.70
2007,05,07,06,45,5.00
2007,05,07,06,46,5.20
2007,05,07,06,47,4.50
2007,05,07,06,48,4.80
2007,05,07,06,49,3.10
2007,05,07,06,50,2.70
2007,05,07,06,51,3.40
2007,05,07,06,52,3.80
2007,05,07,06,53,4.00
2007,05,07,06,54,3.80
2007,05,07,06,55,4.10
2007,05,07,06,56,4.70
2007,05,07,06,57,4.80
2007,05,07,06,58,5.20
2007,05,07,06,59,5.10
2007,05,07,07,00,5.10
2007,05,07,07,01,5.20
2007,05,07,07,02,7.30
2007,05,07,07,03,6.90
2007,05,07,07,04,6.00
2007,05,07,07,05,6.00
2007,05,07,07,06,6.40
2007,05,07,07,07,4.30
2007,05,07,07,08,5.70
2007,05,07,07,09,5.70
2007,05,07,07,10,4.60
2007,05,07,07,11,6.40
2007,05,07,07,12,6.10
2007,05,07,07,13,6.40
2007,05,07,07,14,9.70
2007,05,07,07,15,8.20
2007,05,07,07,16,8.50
2007,05,07,07,17,8.10
2007,05,07,07,18,6.80
2007,05,07,07,19,7.60
2007,05,07,07,20,8.00
2007,05,07,07,21,7.60
2007,05,07,07,22,8.30
2007,05,07,07,23,10.70
2007,05,07,07,24,8.00
2007,05,07,07,25,6.00
2007,05,07,07,26,6.20
2007,05,07,07,27,6.70
2007,05,07,07,28,7.90
2007,05,07,07,29,6.20
2007,05,07,07,30,5.80
2007,05,07,07,31,6.90
2007,05,07,07,32,7.90
2007,05,07,07,33,9.30
2007,05,07,07,34,7.30
2007,05,07,07,35,6.40
2007,05,07,07,36,3.10
2007,05,07,07,37,5.80
2007,05,07,07,38,6.70
2007,05,07,07,39,8.00
2007,05,07,07,40,4.80
2007,05,07,07,41,3.20
2007,05,07,07,42,3.20
2007,05,07,07,43,3.00
2007,05,07,07,44,4.90
2007,05,07,07,45,5.50
2007,05,07,07,46,6.50
2007,05,07,07,47,8.60
2007,05,07,07,48,8.30
2007,05,07,07,49,8.30
2007,05,07,07,50,6.80
2007,05,07,07,51,8.10
2007,05,07,07,52,6.40
2007,05,07,07,53,6.90
2007,05,07,07,54,7.90
2007,05,07,07,55,5.70
2007,05,07,07,56,5.80
2007,05,07,07,57,5.30
2007,05,07,07,58,6.90
2007,05,07,07,59,4.80
2007,05,07,08,00,4.30
2007,05,07,08,01,2.80
2007,05,07,08,02,5.00
2007,05,07,08,03,9.00
2007,05,07,08,04,7.50
2007,05,07,08,05,11.00
2007,05,07,08,06,6.80
2007,05,07,08,07,7.20
2007,05,07,08,08,6.30
2007,05,07,08,09,4.80
2007,05,07,08,10,4.50
2007,05,07,08,11,6.00
2007,05,07,08,12,5.30
2007,05,07,08,13,9.00
2007,05,07,08,14,4.60
2007,05,07,08,15,5.70
2007,05,07,08,16,5.00
2007,05,07,08,17,8.60
2007,05,07,08,18,11.80
2007,05,07,08,19,9.90
2007,05,07,08,20,8.90
2007,05,07,08,21,6.00
2007,05,07,08,22,7.00
2007,05,07,08,23,8.70
2007,05,07,08,24,10.60
2007,05,07,08,25,6.30
2007,05,07,08,26,5.70
2007,05,07,08,27,2.90
2007,05,07,08,28,4.20
2007,05,07,08,29,4.50
2007,05,07,08,30,6.00
2007,05,07,08,31,8.00
2007,05,07,08,32,4.10
2007,05,07,08,33,4.90
2007,05,07,08,34,8.30
2007,05,07,08,35,5.10
2007,05,07,08,36,4.80
2007,05,07,08,37,12.60
2007,05,07,08,38,10.50
2007,05,07,08,39,13.50
2007,05,07,08,40,7.20
2007,05,07,08,41,3.60
2007,05,07,08,42,4.80
2007,05,07,08,43,7.10
2007,05,07,08,44,7.10
2007,05,07,08,45,7.30
2007,05,07,08,46,7.60
2007,05,07,08,47,3.90
2007,05,07,08,48,5.00
2007,05,07,08,49,5.90
2007,05,07,08,50,4.90
2007,05,07,08,51,7.10
2007,05,07,08,52,7.60
2007,05,07,08,53,9.50
2007,05,07,08,54,9.20
2007,05,07,08,55,9.60
2007,05,07,08,56,8.20
2007,05,07,08,57,10.30
2007,05,07,08,58,7.40
2007,05,07,08,59,12.70
2007,05,07,09,00,5.60
2007,05,07,09,01,9.70
2007,05,07,09,02,8.10
2007,05,07,09,03,10.10
2007,05,07,09,04,12.00
2007,05,07,09,05,10.40
2007,05,07,09,06,9.70
2007,05,07,09,07,8.70
2007,05,07,09,08,6.10
2007,05,07,09,09,5.50
2007,05,07,09,10,9.70
2007,05,07,09,11,11.20
2007,05,07,09,12,11.90
2007,05,07,09,13,10.70
2007,05,07,09,14,5.20
2007,05,07,09,15,5.70
2007,05,07,09,16,6.10
2007,05,07,09,17,5.10
2007,05,07,09,18,10.00
2007,05,07,09,19,11.30
2007,05,07,09,20,8.50
2007,05,07,09,21,12.10
2007,05,07,09,22,13.20
2007,05,07,09,23,11.60
2007,05,07,09,24,11.10
2007,05,07,09,25,8.00
2007,05,07,09,26,11.30
2007,05,07,09,27,12.90
2007,05,07,09,28,12.90
2007,05,07,09,29,7.60
2007,05,07,09,30,6.90
2007,05,07,09,31,8.50
2007,05,07,09,32,8.70
2007,05,07,09,33,9.30
2007,05,07,09,34,6.90
2007,05,07,09,35,6.60
2007,05,07,09,36,3.40
2007,05,07,09,37,6.40
2007,05,07,09,38,5.60
2007,05,07,09,39,6.10
2007,05,07,09,40,8.00
2007,05,07,09,41,3.40
2007,05,07,09,42,3.80
2007,05,07,09,43,5.90
2007,05,07,09,44,11.80
2007,05,07,09,45,6.20
2007,05,07,09,46,7.10
2007,05,07,09,47,6.70
2007,05,07,09,48,8.20
2007,05,07,09,49,8.70
2007,05,07,09,50,9.00
2007,05,07,09,51,7.90
2007,05,07,09,52,4.90
2007,05,07,09,53,8.00
2007,05,07,09,54,7.30
2007,05,07,09,55,6.60
2007,05,07,09,56,6.40
2007,05,07,09,57,6.40
2007,05,07,09,58,6.40
2007,05,07,09,59,6.60
2007,05,07,10,00,5.40
2007,05,07,10,01,4.50
2007,05,07,10,02,3.40
2007,05,07,10,03,8.00
2007,05,07,10,04,7.50
2007,05,07,10,05,5.90
2007,05,07,10,06,5.70
2007,05,07,10,07,7.00
2007,05,07,10,08,3.90
2007,05,07,10,09,7.80
2007,05,07,10,10,8.40
2007,05,07,10,11,4.30
2007,05,07,10,12,4.80
2007,05,07,10,13,4.50
2007,05,07,10,14,6.40
2007,05,07,10,15,8.70
2007,05,07,10,16,9.00
2007,05,07,10,17,6.00
2007,05,07,10,18,5.50
2007,05,07,10,19,6.90
2007,05,07,10,20,8.80
2007,05,07,10,21,13.30
2007,05,07,10,22,12.90
2007,05,07,10,23,12.90
2007,05,07,10,24,4.00
2007,05,07,10,25,1.60
2007,05,07,10,26,2.20
2007,05,07,10,27,2.00
2007,05,07,10,28,2.40
2007,05,07,10,29,4.10
2007,05,07,10,30,8.30
2007,05,07,10,31,6.20
2007,05,07,10,32,4.90
2007,05,07,10,33,6.00
2007,05,07,10,34,9.40
2007,05,07,10,35,6.80
2007,05,07,10,36,3.60
2007,05,07,10,37,6.80
2007,05,07,10,38,4.00
2007,05,07,10,39,8.10
2007,05,07,10,40,11.00
2007,05,07,10,41,5.60
2007,05,07,10,42,4.30
2007,05,07,10,43,1.50
2007,05,07,10,44,4.10
2007,05,07,10,45,9.00
2007,05,07,10,46,8.50
2007,05,07,10,47,5.80
2007,05,07,10,48,4.30
2007,05,07,10,49,2.20
2007,05,07,10,50,7.60
2007,05,07,10,51,4.80
2007,05,07,10,52,4.20
2007,05,07,10,53,2.30
2007,05,07,10,54,5.80
2007,05,07,10,55,6.40
2007,05,07,10,56,6.30
2007,05,07,10,57,3.10
2007,05,07,10,58,6.70
2007,05,07,10,59,6.10
2007,05,07,11,00,3.60
2007,05,07,11,01,4.90
2007,05,07,11,02,7.10
2007,05,07,11,03,9.50
2007,05,07,11,04,4.00
2007,05,07,11,05,0.10
2007,05,07,11,06,4.70
2007,05,07,11,07,4.80
2007,05,07,11,08,4.80
2007,05,07,11,09,5.80
2007,05,07,11,10,3.50
2007,05,07,11,11,1.40
2007,05,07,11,12,3.80
2007,05,07,11,13,1.00
2007,05,07,11,14,5.20
2007,05,07,11,15,3.80
2007,05,07,11,16,4.50
2007,05,07,11,17,7.00
2007,05,07,11,18,8.30
2007,05,07,11,19,4.80
2007,05,07,11,20,4.80
2007,05,07,11,21,4.80
2007,05,07,11,22,4.80
2007,05,07,11,23,4.80
2007,05,07,11,24,4.80
2007,05,07,11,25,4.80
2007,05,07,11,26,4.50
2007,05,07,11,27,5.10
2007,05,07,11,28,6.00
2007,05,07,11,29,0.90
2007,05,07,11,30,6.30
2007,05,07,11,31,2.40
2007,05,07,11,32,8.10
2007,05,07,11,33,4.20
2007,05,07,11,34,3.90
2007,05,07,11,35,1.70
2007,05,07,11,36,6.70
2007,05,07,11,37,7.20
2007,05,07,11,38,1.50
2007,05,07,11,39,0.30
2007,05,07,11,40,5.50
2007,05,07,11,41,8.90
2007,05,07,11,42,7.40
2007,05,07,11,43,4.50
2007,05,07,11,44,5.30
2007,05,07,11,45,5.60
2007,05,07,11,46,6.40
2007,05,07,11,47,3.20
2007,05,07,11,48,4.60
2007,05,07,11,49,1.40
2007,05,07,11,50,7.10
2007,05,07,11,51,3.70
2007,05,07,11,52,7.10
2007,05,07,11,53,7.60
2007,05,07,11,54,8.40
2007,05,07,11,55,6.50
2007,05,07,11,56,7.80
2007,05,07,11,57,6.40
2007,05,07,11,58,9.30
2007,05,07,11,59,9.60
2007,05,07,12,00,9.60
2007,05,07,12,01,7.80
2007,05,07,12,02,7.30
2007,05,07,12,03,3.30
2007,05,07,12,04,9.20
2007,05,07,12,05,5.60
2007,05,07,12,06,0.20
2007,05,07,12,07,4.30
2007,05,07,12,08,10.20
2007,05,07,12,09,6.40
2007,05,07,12,10,7.60
2007,05,07,12,11,10.50
2007,05,07,12,12,10.20
2007,05,07,12,13,7.50
2007,05,07,12,14,7.70
2007,05,07,12,15,8.90
2007,05,07,12,16,6.50
2007,05,07,12,17,5.60
2007,05,07,12,18,7.00
2007,05,07,12,19,7.30
2007,05,07,12,20,5.20
2007,05,07,12,21,7.30
2007,05,07,12,22,9.70
2007,05,07,12,23,12.40
2007,05,07,12,24,9.70
2007,05,07,12,25,7.20
2007,05,07,12,26,11.30
2007,05,07,12,27,7.30
2007,05,07,12,28,7.40
2007,05,07,12,29,3.20
2007,05,07,12,30,4.40
2007,05,07,12,31,5.80
2007,05,07,12,32,7.80
2007,05,07,12,33,7.00
2007,05,07,12,34,6.60
2007,05,07,12,35,10.60
2007,05,07,12,36,7.30
2007,05,07,12,37,6.80
2007,05,07,12,38,6.10
2007,05,07,12,39,9.00
2007,05,07,12,40,7.30
2007,05,07,12,41,7.10
2007,05,07,12,42,4.80
2007,05,07,12,43,3.50
2007,05,07,12,44,6.50
2007,05,07,12,45,7.80
2007,05,07,12,46,8.70
2007,05,07,12,47,8.60
2007,05,07,12,48,7.50
2007,05,07,12,49,11.70
2007,05,07,12,50,13.50
2007,05,07,12,51,8.90
2007,05,07,12,52,4.00
2007,05,07,12,53,9.40
2007,05,07,12,54,10.50
2007,05,07,12,55,8.90
2007,05,07,12,56,7.80
2007,05,07,12,57,11.70
2007,05,07,12,58,7.20
2007,05,07,12,59,10.30
2007,05,07,13,00,10.60
2007,05,07,13,01,9.50
2007,05,07,13,02,8.70
2007,05,07,13,03,12.50
2007,05,07,13,04,9.10
2007,05,07,13,05,8.90
2007,05,07,13,06,10.80
2007,05,07,13,07,9.30
2007,05,07,13,08,7.40
2007,05,07,13,09,11.20
2007,05,07,13,10,11.60
2007,05,07,13,11,11.80
2007,05,07,13,12,8.10
2007,05,07,13,13,15.20
2007,05,07,13,14,12.20
2007,05,07,13,15,9.00
2007,05,07,13,16,9.20
2007,05,07,13,17,7.90
2007,05,07,13,18,9.30
2007,05,07,13,19,13.40
2007,05,07,13,20,11.70
2007,05,07,13,21,8.10
2007,05,07,13,22,8.60
2007,05,07,13,23,9.90
2007,05,07,13,24,10.10
2007,05,07,13,25,12.40
2007,05,07,13,26,12.70
2007,05,07,13,27,11.00
2007,05,07,13,28,11.10
2007,05,07,13,29,12.70
2007,05,07,13,30,8.60
2007,05,07,13,31,7.50
2007,05,07,13,32,7.80
2007,05,07,13,33,6.40
2007,05,07,13,34,9.10
2007,05,07,13,35,9.00
2007,05,07,13,36,10.60
2007,05,07,13,37,13.70
2007,05,07,13,38,14.70
2007,05,07,13,39,12.10
2007,05,07,13,40,11.30
2007,05,07,13,41,15.90
2007,05,07,13,42,14.10
2007,05,07,13,43,12.70
2007,05,07,13,44,13.10
2007,05,07,13,45,10.50
2007,05,07,13,46,7.40
2007,05,07,13,47,7.90
2007,05,07,13,48,13.90
2007,05,07,13,49,7.20
2007,05,07,13,50,7.70
2007,05,07,13,51,13.90
2007,05,07,13,52,9.10
2007,05,07,13,53,8.90
2007,05,07,13,54,8.50
2007,05,07,13,55,10.90
2007,05,07,13,56,9.90
2007,05,07,13,57,9.90
2007,05,07,13,58,10.80
2007,05,07,13,59,10.20
2007,05,07,14,00,8.60
2007,05,07,14,01,8.90
2007,05,07,14,02,8.80
2007,05,07,14,03,11.50
2007,05,07,14,04,11.00
2007,05,07,14,05,8.50
2007,05,07,14,06,5.00
2007,05,07,14,07,8.80
2007,05,07,14,08,7.10
2007,05,07,14,09,10.30
2007,05,07,14,10,6.50
2007,05,07,14,11,8.40
2007,05,07,14,12,6.40
2007,05,07,14,13,8.20
2007,05,07,14,14,9.30
2007,05,07,14,15,8.90
2007,05,07,14,16,4.20
2007,05,07,14,17,5.90
2007,05,07,14,18,5.70
2007,05,07,14,19,5.40
2007,05,07,14,20,9.70
2007,05,07,14,21,9.50
2007,05,07,14,22,8.70
2007,05,07,14,23,8.50
2007,05,07,14,24,9.20
2007,05,07,14,25,9.80
2007,05,07,14,26,11.60
2007,05,07,14,27,7.90
2007,05,07,14,28,6.50
2007,05,07,14,29,5.10
2007,05,07,14,30,8.90
2007,05,07,14,31,10.70
2007,05,07,14,32,13.40
2007,05,07,14,33,14.00
2007,05,07,14,34,8.70
2007,05,07,14,35,12.20
2007,05,07,14,36,9.30
2007,05,07,14,37,11.30
2007,05,07,14,38,9.20
2007,05,07,14,39,11.70
2007,05,07,14,40,9.60
2007,05,07,14,41,8.60
2007,05,07,14,42,10.90
2007,05,07,14,43,14.80
2007,05,07,14,44,9.90
2007,05,07,14,45,10.00
2007,05,07,14,46,9.20
2007,05,07,14,47,8.30
2007,05,07,14,48,11.90
2007,05,07,14,49,7.90
2007,05,07,14,50,7.50
2007,05,07,14,51,6.80
2007,05,07,14,52,9.30
2007,05,07,14,53,10.20
2007,05,07,14,54,10.00
2007,05,07,14,55,12.70
2007,05,07,14,56,10.30
2007,05,07,14,57,8.00
2007,05,07,14,58,9.40
2007,05,07,14,59,9.60
2007,05,07,15,00,9.40
2007,05,07,15,01,10.80
2007,05,07,15,02,11.50
2007,05,07,15,03,6.80
2007,05,07,15,04,9.40
2007,05,07,15,05,8.10
2007,05,07,15,06,4.70
2007,05,07,15,07,6.40
2007,05,07,15,08,7.60
2007,05,07,15,09,9.10
2007,05,07,15,10,8.80
2007,05,07,15,11,6.40
2007,05,07,15,12,3.00
2007,05,07,15,13,8.90
2007,05,07,15,14,6.40
2007,05,07,15,15,6.60
2007,05,07,15,16,5.90
2007,05,07,15,17,5.50
2007,05,07,15,18,6.80
2007,05,07,15,19,8.30
2007,05,07,15,20,6.50
2007,05,07,15,21,6.60
2007,05,07,15,22,5.90
2007,05,07,15,23,4.10
2007,05,07,15,24,4.90
2007,05,07,15,25,7.80
2007,05,07,15,26,4.50
2007,05,07,15,27,5.70
2007,05,07,15,28,5.70
2007,05,07,15,29,6.60
2007,05,07,15,30,4.70
2007,05,07,15,31,5.60
2007,05,07,15,32,3.10
2007,05,07,15,33,4.20
2007,05,07,15,34,4.40
2007,05,07,15,35,5.80
2007,05,07,15,36,5.40
2007,05,07,15,37,6.10
2007,05,07,15,38,5.70
2007,05,07,15,39,4.40
2007,05,07,15,40,2.20
2007,05,07,15,41,6.50
2007,05,07,15,42,6.30
2007,05,07,15,43,5.30
2007,05,07,15,44,4.80
2007,05,07,15,45,4.60
2007,05,07,15,46,5.70
2007,05,07,15,47,5.40
2007,05,07,15,48,5.50
2007,05,07,15,49,4.70
2007,05,07,15,50,6.20
2007,05,07,15,51,9.10
2007,05,07,15,52,7.90
2007,05,07,15,53,7.90
2007,05,07,15,54,7.30
2007,05,07,15,55,10.00
2007,05,07,15,56,6.60
2007,05,07,15,57,6.30
2007,05,07,15,58,8.40
2007,05,07,15,59,6.20
2007,05,07,16,00,9.80
2007,05,07,16,01,12.60
2007,05,07,16,02,11.60
2007,05,07,16,03,6.30
2007,05,07,16,04,6.80
2007,05,07,16,05,5.30
2007,05,07,16,06,9.70
2007,05,07,16,07,7.20
2007,05,07,16,08,7.60
2007,05,07,16,09,7.50
2007,05,07,16,10,9.60
2007,05,07,16,11,9.90
2007,05,07,16,12,9.60
2007,05,07,16,13,9.40
2007,05,07,16,14,10.10
2007,05,07,16,15,13.50
2007,05,07,16,16,10.40
2007,05,07,16,17,13.70
2007,05,07,16,18,12.90
2007,05,07,16,19,9.20
2007,05,07,16,20,9.00
2007,05,07,16,21,14.70
2007,05,07,16,22,15.60
2007,05,07,16,23,10.10
2007,05,07,16,24,15.60
2007,05,07,16,25,16.10
2007,05,07,16,26,14.40
2007,05,07,16,27,12.30
2007,05,07,16,28,17.00
2007,05,07,16,29,13.80
2007,05,07,16,30,13.20
2007,05,07,16,31,9.70
2007,05,07,16,32,6.80
2007,05,07,16,33,8.00
2007,05,07,16,34,8.50
2007,05,07,16,35,10.30
2007,05,07,16,36,13.90
2007,05,07,16,37,14.80
2007,05,07,16,38,15.00
2007,05,07,16,39,11.90
2007,05,07,16,40,22.50
2007,05,07,16,41,21.80
2007,05,07,16,42,19.40
2007,05,07,16,43,15.10
2007,05,07,16,44,13.90
2007,05,07,16,45,16.80
2007,05,07,16,46,15.70
2007,05,07,16,47,14.90
2007,05,07,16,48,19.40
2007,05,07,16,49,12.50
2007,05,07,16,50,7.80
2007,05,07,16,51,13.30
2007,05,07,16,52,17.20
2007,05,07,16,53,16.00
2007,05,07,16,54,11.20
2007,05,07,16,55,14.00
2007,05,07,16,56,17.10
2007,05,07,16,57,10.10
2007,05,07,16,58,11.60
2007,05,07,16,59,14.80
2007,05,07,17,00,12.90
2007,05,07,17,01,9.80
2007,05,07,17,02,18.20
2007,05,07,17,03,17.30
2007,05,07,17,04,14.80
2007,05,07,17,05,13.80
2007,05,07,17,06,12.80
2007,05,07,17,07,14.60
2007,05,07,17,08,9.00
2007,05,07,17,09,16.50
2007,05,07,17,10,17.70
2007,05,07,17,11,17.10
2007,05,07,17,12,9.10
2007,05,07,17,13,7.80
2007,05,07,17,14,10.30
2007,05,07,17,15,9.50
2007,05,07,17,16,12.70
2007,05,07,17,17,17.10
2007,05,07,17,18,11.40
2007,05,07,17,19,14.30
2007,05,07,17,20,9.30
2007,05,07,17,21,11.70
2007,05,07,17,22,10.30
2007,05,07,17,23,10.70
2007,05,07,17,24,12.70
2007,05,07,17,25,12.30
2007,05,07,17,26,10.60
2007,05,07,17,27,13.80
2007,05,07,17,28,12.30
2007,05,07,17,29,13.50
2007,05,07,17,30,10.50
2007,05,07,17,31,13.40
2007,05,07,17,32,9.60
2007,05,07,17,33,11.90
2007,05,07,17,34,15.30
2007,05,07,17,35,9.90
2007,05,07,17,36,9.70
2007,05,07,17,37,11.90
2007,05,07,17,38,13.40
2007,05,07,17,39,14.70
2007,05,07,17,40,15.40
2007,05,07,17,41,15.90
2007,05,07,17,42,15.00
2007,05,07,17,43,13.70
2007,05,07,17,44,16.90
2007,05,07,17,45,13.00
2007,05,07,17,46,14.60
2007,05,07,17,47,10.10
2007,05,07,17,48,12.60
2007,05,07,17,49,10.10
2007,05,07,17,50,8.80
2007,05,07,17,51,12.10
2007,05,07,17,52,13.70
2007,05,07,17,53,10.30
2007,05,07,17,54,10.20
2007,05,07,17,55,8.50
2007,05,07,17,56,5.60
2007,05,07,17,57,6.40
2007,05,07,17,58,10.80